Weather in Pravdino

Russia / Yaroslavl Oblast     57°57′20″N   37°53′26″E
temp.,
°C
wind,
m/s
gust,
m/s
humid.,
%
clouds,
%
prec.,
mm/h
press.,
hPa
HPBL,
m
8 may, sat
sat800:00+5s388693 0.0 1011146
03:00+5sse3982100 0.0 1011191
06:00+6sse41473100 0.0 1009505
09:00+9sse71672100 0.2 10091446
12:00+8sse71391100 1.6 10081168
15:00+7sse61394100 5.3 10071296
18:00+7sse4994100 6.3 10051082
21:00+7e2499100 10.6 1003174
9 may, sun
sun900:00+6nw4896100 2.8 1002482
03:00+4nnw61094100 3.3 1003801
06:00+3nw71396100 0.8 1005869
09:00+4nw61287100 1.4 1008932
12:00+6nw61076100 0.1 10121140
15:00+11nnw6104299 0.1 10142309
18:00+10nw59548 0.1 10161584
21:00+5wnw23725 0.1 102038
10 may, mon
mon1000:00+3wnw38730 0.0 1023151
03:00+2nw22735 0.0 102633
06:00+4wsw22655 0.0 102761
09:00+9ssw35485 0.0 1028565
12:00+13ssw564315 0.0 10281665
15:00+12sw4754100 0.0 1028960
18:00+11ssw377065 0.0 1028300
21:00+8ssw37835 0.0 1029119
11 may, tue
tue1100:00+7ssw378549 0.0 1030108
03:00+6sw3690100 0.0 103095
06:00+8ssw25859 0.0 1031114
09:00+14ssw34645 0.0 1031461
12:00+18ssw345579 0.0 10311015
15:00+19ssw345489 0.0 10301213
18:00+18sw1264100 0.0 1029708
21:00+13sse1178100 0.0 102911
12 may, wed
wed1200:00+10s23896 0.0 103048
03:00+9se22890 0.0 103012
06:00+10se25821 0.0 1030145
09:00+16se35585 0.0 1030575
12:00+19se464728 0.0 10291122
15:00+20se45437 0.0 10281299
18:00+19se25560 0.0 1028672
21:00+13ese22791 0.0 102835